Time,TemperatureF,DewpointF,PressureIn,WindDirection,WindDirectionDegrees,WindSpeedMPH,WindSpeedGustMPH,Humidity,HourlyPrecipIn,Conditions,Clouds,dailyrainin,SoftwareType,DateUTC
2013-02-12 00:00:00,15.7,10.4,29.31,WNW,293,2.5,2.9,79,0.00,,,0.00,WUHU216HW,2013-02-12 06:00:00,
2013-02-12 00:05:00,15.5,9.8,29.31,West,270,1.8,3.4,78,0.00,,,0.00,WUHU216HW,2013-02-12 06:05:00,
2013-02-12 00:10:00,15.5,9.8,29.31,WSW,248,2.2,3.4,78,0.00,,,0.00,WUHU216HW,2013-02-12 06:10:00,
2013-02-12 00:15:00,15.3,10.0,29.31,WNW,293,1.8,3.4,79,0.00,,,0.00,WUHU216HW,2013-02-12 06:15:00,
2013-02-12 00:20:00,15.1,9.8,29.31,WNW,293,0.4,2.7,79,0.00,,,0.00,WUHU216HW,2013-02-12 06:20:00,
2013-02-12 00:25:00,14.9,9.6,29.31,West,270,0.4,2.5,79,0.00,,,0.00,WUHU216HW,2013-02-12 06:25:00,
2013-02-12 00:30:00,14.8,9.5,29.31,WSW,248,0.4,1.3,79,0.00,,,0.00,WUHU216HW,2013-02-12 06:30:00,
2013-02-12 00:35:00,14.6,9.3,29.31,West,270,0.4,1.3,79,0.00,,,0.00,WUHU216HW,2013-02-12 06:35:00,
2013-02-12 00:40:00,14.2,8.9,29.31,West,270,0.4,1.8,79,0.00,,,0.00,WUHU216HW,2013-02-12 06:40:00,
2013-02-12 00:45:00,14.0,8.7,29.31,West,270,0.2,1.8,79,0.00,,,0.00,WUHU216HW,2013-02-12 06:45:00,
2013-02-12 00:50:00,14.0,8.7,29.31,West,270,1.8,1.8,79,0.00,,,0.00,WUHU216HW,2013-02-12 06:50:00,
2013-02-12 00:55:00,14.2,8.9,29.31,WSW,248,1.3,1.8,79,0.00,,,0.00,WUHU216HW,2013-02-12 06:55:00,
2013-02-12 01:00:00,14.4,9.4,29.31,West,270,0.7,1.8,80,0.00,,,0.00,WUHU216HW,2013-02-12 07:00:00,
2013-02-12 01:05:00,14.8,9.7,29.31,West,270,1.8,2.9,80,0.00,,,0.00,WUHU216HW,2013-02-12 07:05:00,
2013-02-12 01:10:00,14.9,9.9,29.31,West,270,1.8,2.9,80,0.00,,,0.00,WUHU216HW,2013-02-12 07:10:00,
2013-02-12 01:15:00,15.1,10.1,29.31,WNW,293,1.8,2.2,80,0.00,,,0.00,WUHU216HW,2013-02-12 07:15:00,
2013-02-12 01:20:00,15.5,10.4,29.30,West,270,0.9,2.0,80,0.00,,,0.00,WUHU216HW,2013-02-12 07:20:00,
2013-02-12 01:25:00,15.5,10.4,29.30,West,270,0.0,1.6,80,0.00,,,0.00,WUHU216HW,2013-02-12 07:25:00,
2013-02-12 01:30:00,15.7,10.6,29.30,West,270,0.4,1.6,80,0.00,,,0.00,WUHU216HW,2013-02-12 07:30:00,
2013-02-12 01:35:00,15.7,10.6,29.30,WNW,293,0.4,1.1,80,0.00,,,0.00,WUHU216HW,2013-02-12 07:35:00,
2013-02-12 01:40:00,15.7,10.9,29.30,WNW,293,0.7,1.3,81,0.00,,,0.00,WUHU216HW,2013-02-12 07:40:00,
2013-02-12 01:45:00,15.7,10.6,29.30,WNW,293,1.1,2.5,80,0.00,,,0.00,WUHU216HW,2013-02-12 07:45:00,
2013-02-12 01:50:00,15.7,10.9,29.30,West,270,0.7,2.5,81,0.00,,,0.00,WUHU216HW,2013-02-12 07:50:00,
2013-02-12 01:55:00,15.7,10.9,29.30,WNW,293,1.1,2.5,81,0.00,,,0.00,WUHU216HW,2013-02-12 07:55:00,
2013-02-12 02:00:00,15.7,10.9,29.30,West,270,0.7,1.6,81,0.00,,,0.00,WUHU216HW,2013-02-12 08:00:00,
2013-02-12 02:05:00,15.8,11.1,29.31,WSW,248,1.6,1.6,81,0.00,,,0.00,WUHU216HW,2013-02-12 08:05:00,
2013-02-12 02:10:00,16.0,11.3,29.30,West,270,2.5,2.5,81,0.00,,,0.00,WUHU216HW,2013-02-12 08:10:00,
2013-02-12 02:15:00,16.0,11.3,29.30,West,270,0.7,2.5,81,0.00,,,0.00,WUHU216HW,2013-02-12 08:15:00,
2013-02-12 02:20:00,16.2,11.3,29.30,WNW,293,1.3,1.8,81,0.00,,,0.00,WUHU216HW,2013-02-12 08:20:00,
2013-02-12 02:25:00,16.4,11.5,29.30,West,270,0.4,1.8,81,0.00,,,0.00,WUHU216HW,2013-02-12 08:25:00,
2013-02-12 02:30:00,16.6,11.7,29.30,WNW,293,0.7,1.8,81,0.00,,,0.00,WUHU216HW,2013-02-12 08:30:00,
2013-02-12 02:35:00,16.7,11.9,29.30,WNW,293,0.4,1.1,81,0.00,,,0.00,WUHU216HW,2013-02-12 08:35:00,
2013-02-12 02:40:00,16.9,12.1,29.30,WNW,293,0.9,2.5,81,0.00,,,0.00,WUHU216HW,2013-02-12 08:40:00,
2013-02-12 02:45:00,17.1,12.3,29.30,WNW,293,1.8,2.7,81,0.00,,,0.00,WUHU216HW,2013-02-12 08:45:00,
2013-02-12 02:50:00,17.3,12.3,29.30,NNW,338,0.4,2.7,81,0.00,,,0.00,WUHU216HW,2013-02-12 08:50:00,
2013-02-12 02:55:00,17.3,12.3,29.30,NW,315,0.7,1.3,81,0.00,,,0.00,WUHU216HW,2013-02-12 08:55:00,
2013-02-12 03:00:00,17.5,12.5,29.30,WSW,248,0.7,1.3,81,0.00,,,0.00,WUHU216HW,2013-02-12 09:00:00,
2013-02-12 03:05:00,17.5,12.5,29.30,West,270,1.6,2.5,81,0.00,,,0.00,WUHU216HW,2013-02-12 09:05:00,
2013-02-12 03:10:00,17.6,12.7,29.29,West,270,0.7,2.5,81,0.00,,,0.00,WUHU216HW,2013-02-12 09:10:00,
2013-02-12 03:15:00,17.6,12.7,29.29,West,270,1.8,2.5,81,0.00,,,0.00,WUHU216HW,2013-02-12 09:15:00,
2013-02-12 03:20:00,17.6,12.7,29.29,West,270,1.8,2.5,81,0.00,,,0.00,WUHU216HW,2013-02-12 09:20:00,
2013-02-12 03:25:00,17.8,12.9,29.29,West,270,2.2,2.5,81,0.00,,,0.00,WUHU216HW,2013-02-12 09:25:00,
2013-02-12 03:30:00,17.8,12.9,29.29,WNW,293,1.6,2.5,81,0.00,,,0.00,WUHU216HW,2013-02-12 09:30:00,
2013-02-12 03:35:00,17.8,12.9,29.29,WSW,248,1.8,2.9,81,0.00,,,0.00,WUHU216HW,2013-02-12 09:35:00,
2013-02-12 03:40:00,18.0,13.1,29.29,WNW,293,0.9,2.9,81,0.00,,,0.00,WUHU216HW,2013-02-12 09:40:00,
2013-02-12 03:45:00,17.8,12.9,29.29,NNE,23,0.4,2.5,81,0.00,,,0.00,WUHU216HW,2013-02-12 09:45:00,
2013-02-12 03:50:00,17.8,12.9,29.28,WNW,293,0.4,0.4,81,0.00,,,0.00,WUHU216HW,2013-02-12 09:50:00,
2013-02-12 03:55:00,17.8,12.9,29.28,West,270,0.4,0.9,81,0.00,,,0.00,WUHU216HW,2013-02-12 09:55:00,
2013-02-12 04:00:00,18.0,13.1,29.28,NW,315,0.7,2.7,81,0.00,,,0.00,WUHU216HW,2013-02-12 10:00:00,
2013-02-12 04:05:00,18.0,13.1,29.28,West,270,1.3,2.7,81,0.00,,,0.00,WUHU216HW,2013-02-12 10:05:00,
2013-02-12 04:10:00,18.2,13.2,29.28,NW,315,0.7,1.8,81,0.00,,,0.00,WUHU216HW,2013-02-12 10:10:00,
2013-02-12 04:15:00,18.4,13.7,29.28,SW,225,0.9,2.9,82,0.00,,,0.00,WUHU216HW,2013-02-12 10:15:00,
2013-02-12 04:20:00,18.4,13.7,29.28,West,270,0.9,2.9,82,0.00,,,0.00,WUHU216HW,2013-02-12 10:20:00,
2013-02-12 04:25:00,18.2,13.2,29.28,NNW,338,0.4,1.8,81,0.00,,,0.00,WUHU216HW,2013-02-12 10:25:00,
2013-02-12 04:30:00,18.2,13.2,29.28,SE,135,0.4,0.7,81,0.00,,,0.00,WUHU216HW,2013-02-12 10:30:00,
2013-02-12 04:35:00,18.2,13.2,29.27,SE,135,0.7,1.6,81,0.00,,,0.00,WUHU216HW,2013-02-12 10:35:00,
2013-02-12 04:40:00,18.4,13.7,29.27,SE,135,0.2,1.6,82,0.00,,,0.00,WUHU216HW,2013-02-12 10:40:00,
2013-02-12 04:45:00,18.4,13.7,29.27,SSE,158,1.6,1.6,82,0.00,,,0.00,WUHU216HW,2013-02-12 10:45:00,
2013-02-12 04:50:00,18.4,13.7,29.27,NW,315,0.0,1.6,82,0.00,,,0.00,WUHU216HW,2013-02-12 10:50:00,
2013-02-12 04:55:00,18.4,13.7,29.27,WNW,293,0.0,0.7,82,0.00,,,0.00,WUHU216HW,2013-02-12 10:55:00,
2013-02-12 05:00:00,18.5,13.9,29.27,WSW,248,0.2,0.9,82,0.00,,,0.00,WUHU216HW,2013-02-12 11:00:00,
2013-02-12 05:05:00,18.5,13.9,29.27,NNW,338,0.0,0.9,82,0.00,,,0.00,WUHU216HW,2013-02-12 11:05:00,
2013-02-12 05:10:00,18.7,14.0,29.26,SE,135,0.2,0.7,82,0.00,,,0.00,WUHU216HW,2013-02-12 11:10:00,
2013-02-12 05:15:00,18.7,14.0,29.27,West,270,0.0,0.7,82,0.00,,,0.00,WUHU216HW,2013-02-12 11:15:00,
2013-02-12 05:20:00,18.9,14.2,29.27,South,180,0.0,0.4,82,0.00,,,0.00,WUHU216HW,2013-02-12 11:20:00,
2013-02-12 05:25:00,19.1,14.4,29.27,WNW,293,0.4,0.4,82,0.00,,,0.00,WUHU216HW,2013-02-12 11:25:00,
2013-02-12 05:30:00,19.1,14.4,29.27,SSE,158,1.1,1.1,82,0.00,,,0.00,WUHU216HW,2013-02-12 11:30:00,
2013-02-12 05:35:00,19.1,14.4,29.27,SW,225,1.1,1.1,82,0.00,,,0.00,WUHU216HW,2013-02-12 11:35:00,
2013-02-12 05:40:00,19.1,14.4,29.26,WNW,293,0.4,1.3,82,0.00,,,0.00,WUHU216HW,2013-02-12 11:40:00,
2013-02-12 05:45:00,19.1,14.4,29.26,WNW,293,0.7,1.3,82,0.00,,,0.00,WUHU216HW,2013-02-12 11:45:00,
2013-02-12 05:50:00,19.1,14.4,29.26,NW,315,0.0,0.7,82,0.00,,,0.00,WUHU216HW,2013-02-12 11:50:00,
2013-02-12 05:55:00,18.9,14.2,29.26,NNE,23,0.2,3.1,82,0.00,,,0.00,WUHU216HW,2013-02-12 11:55:00,
2013-02-12 06:00:00,18.9,14.2,29.26,WNW,293,0.7,3.1,82,0.00,,,0.00,WUHU216HW,2013-02-12 12:00:00,
2013-02-12 06:05:00,18.7,13.8,29.26,North,0,0.2,1.6,81,0.00,,,0.00,WUHU216HW,2013-02-12 12:05:00,
2013-02-12 06:10:00,18.4,13.4,29.26,WNW,293,0.4,1.6,81,0.00,,,0.00,WUHU216HW,2013-02-12 12:10:00,
2013-02-12 06:15:00,18.0,12.8,29.26,East,90,0.2,0.7,80,0.00,,,0.00,WUHU216HW,2013-02-12 12:15:00,
2013-02-12 06:20:00,17.8,12.6,29.26,ENE,68,0.2,0.4,80,0.00,,,0.00,WUHU216HW,2013-02-12 12:20:00,
2013-02-12 06:25:00,17.6,12.4,29.26,SSW,203,0.4,0.4,80,0.00,,,0.00,WUHU216HW,2013-02-12 12:25:00,
2013-02-12 06:30:00,17.3,12.1,29.26,ESE,113,0.2,0.4,80,0.00,,,0.00,WUHU216HW,2013-02-12 12:30:00,
2013-02-12 06:35:00,17.3,12.3,29.25,NE,45,0.0,0.2,81,0.00,,,0.00,WUHU216HW,2013-02-12 12:35:00,
2013-02-12 06:40:00,16.9,12.1,29.25,SSE,158,0.4,0.7,81,0.00,,,0.00,WUHU216HW,2013-02-12 12:40:00,
2013-02-12 06:45:00,16.9,12.1,29.25,SSE,158,0.0,1.8,81,0.00,,,0.00,WUHU216HW,2013-02-12 12:45:00,
2013-02-12 06:50:00,16.7,11.9,29.25,ESE,113,0.0,1.8,81,0.00,,,0.00,WUHU216HW,2013-02-12 12:50:00,
2013-02-12 06:55:00,16.6,11.7,29.25,East,90,0.0,0.4,81,0.00,,,0.00,WUHU216HW,2013-02-12 12:55:00,
2013-02-12 07:00:00,16.2,11.3,29.25,East,90,0.0,0.4,81,0.00,,,0.00,WUHU216HW,2013-02-12 13:00:00,
2013-02-12 07:05:00,16.2,11.3,29.25,ESE,113,0.0,0.4,81,0.00,,,0.00,WUHU216HW,2013-02-12 13:05:00,
2013-02-12 07:10:00,16.0,11.3,29.24,ESE,113,0.0,0.2,81,0.00,,,0.00,WUHU216HW,2013-02-12 13:10:00,
2013-02-12 07:15:00,15.8,11.1,29.24,SE,135,0.0,0.4,81,0.00,,,0.00,WUHU216HW,2013-02-12 13:15:00,
2013-02-12 07:20:00,15.7,10.9,29.24,SSE,158,1.6,1.6,81,0.00,,,0.00,WUHU216HW,2013-02-12 13:20:00,
2013-02-12 07:25:00,15.7,11.2,29.24,SE,135,0.7,3.4,82,0.00,,,0.00,WUHU216HW,2013-02-12 13:25:00,
2013-02-12 07:30:00,15.7,11.2,29.24,South,180,1.8,3.4,82,0.00,,,0.00,WUHU216HW,2013-02-12 13:30:00,
2013-02-12 07:35:00,15.5,11.0,29.23,SSE,158,1.6,2.5,82,0.00,,,0.00,WUHU216HW,2013-02-12 13:35:00,
2013-02-12 07:40:00,15.5,11.0,29.23,SE,135,1.1,2.5,82,0.00,,,0.00,WUHU216HW,2013-02-12 13:40:00,
2013-02-12 07:45:00,15.7,11.2,29.23,East,90,1.3,2.9,82,0.00,,,0.00,WUHU216HW,2013-02-12 13:45:00,
2013-02-12 07:50:00,15.8,11.5,29.23,SE,135,0.9,2.9,83,0.00,,,0.00,WUHU216HW,2013-02-12 13:50:00,
2013-02-12 07:55:00,16.2,11.9,29.23,SE,135,1.1,1.3,83,0.00,,,0.00,WUHU216HW,2013-02-12 13:55:00,
2013-02-12 08:00:00,16.2,11.9,29.23,SSE,158,0.4,1.6,83,0.00,,,0.00,WUHU216HW,2013-02-12 14:00:00,
2013-02-12 08:05:00,16.6,12.3,29.23,SSE,158,1.1,1.6,83,0.00,,,0.00,WUHU216HW,2013-02-12 14:05:00,
2013-02-12 08:10:00,16.9,12.6,29.23,NE,45,0.0,1.1,83,0.00,,,0.00,WUHU216HW,2013-02-12 14:10:00,
2013-02-12 08:15:00,17.3,12.6,29.23,ESE,113,2.5,2.5,82,0.00,,,0.00,WUHU216HW,2013-02-12 14:15:00,
2013-02-12 08:20:00,17.5,12.8,29.23,SE,135,0.4,2.5,82,0.00,,,0.00,WUHU216HW,2013-02-12 14:20:00,
2013-02-12 08:25:00,17.8,13.1,29.23,SSE,158,3.4,3.4,82,0.00,,,0.00,WUHU216HW,2013-02-12 14:25:00,
2013-02-12 08:30:00,18.2,13.2,29.23,South,180,2.7,3.4,81,0.00,,,0.00,WUHU216HW,2013-02-12 14:30:00,
2013-02-12 08:35:00,18.5,13.9,29.22,SE,135,1.1,4.3,82,0.00,,,0.00,WUHU216HW,2013-02-12 14:35:00,
2013-02-12 08:40:00,19.1,14.4,29.22,South,180,0.9,4.3,82,0.00,,,0.00,WUHU216HW,2013-02-12 14:40:00,
2013-02-12 08:45:00,19.6,14.9,29.22,SSE,158,1.8,1.8,82,0.00,,,0.00,WUHU216HW,2013-02-12 14:45:00,
2013-02-12 08:50:00,20.2,15.5,29.22,NW,315,0.2,2.9,82,0.00,,,0.00,WUHU216HW,2013-02-12 14:50:00,
2013-02-12 08:55:00,20.7,16.0,29.21,South,180,0.0,2.9,82,0.00,,,0.00,WUHU216HW,2013-02-12 14:55:00,
2013-02-12 09:00:00,21.2,16.3,29.21,SSE,158,0.9,4.7,81,0.00,,,0.00,WUHU216HW,2013-02-12 15:00:00,
2013-02-12 09:05:00,22.0,16.7,29.21,SW,225,0.2,4.7,80,0.00,,,0.00,WUHU216HW,2013-02-12 15:05:00,
2013-02-12 09:10:00,22.7,17.2,29.21,WNW,293,3.1,4.5,79,0.00,,,0.00,WUHU216HW,2013-02-12 15:10:00,
2013-02-12 09:15:00,23.4,17.6,29.21,SW,225,4.0,4.0,78,0.00,,,0.00,WUHU216HW,2013-02-12 15:15:00,
2013-02-12 09:20:00,24.1,18.5,29.21,SSE,158,0.9,4.0,79,0.00,,,0.00,WUHU216HW,2013-02-12 15:20:00,
2013-02-12 09:25:00,24.8,19.3,29.21,West,270,1.1,4.0,79,0.00,,,0.00,WUHU216HW,2013-02-12 15:25:00,
2013-02-12 09:30:00,25.0,19.2,29.21,North,0,0.9,3.8,78,0.00,,,0.00,WUHU216HW,2013-02-12 15:30:00,
2013-02-12 09:35:00,25.2,19.0,29.21,South,180,2.5,3.8,77,0.00,,,0.00,WUHU216HW,2013-02-12 15:35:00,
2013-02-12 09:40:00,25.6,19.4,29.21,East,90,0.9,3.6,77,0.00,,,0.00,WUHU216HW,2013-02-12 15:40:00,
2013-02-12 09:45:00,25.6,19.0,29.21,NNE,23,0.4,4.9,76,0.00,,,0.00,WUHU216HW,2013-02-12 15:45:00,
2013-02-12 09:50:00,25.6,19.0,29.20,WSW,248,0.4,4.9,76,0.00,,,0.00,WUHU216HW,2013-02-12 15:50:00,
2013-02-12 09:55:00,26.1,19.5,29.20,NNW,338,1.8,4.9,76,0.00,,,0.00,WUHU216HW,2013-02-12 15:55:00,
2013-02-12 10:00:00,26.3,19.4,29.20,ENE,68,0.2,4.9,75,0.00,,,0.00,WUHU216HW,2013-02-12 16:00:00,
2013-02-12 10:05:00,26.5,19.5,29.20,SE,135,0.4,1.8,75,0.00,,,0.00,WUHU216HW,2013-02-12 16:05:00,
2013-02-12 10:10:00,27.0,20.1,29.20,WSW,248,2.2,2.2,75,0.00,,,0.00,WUHU216HW,2013-02-12 16:10:00,
2013-02-12 10:15:00,27.4,20.4,29.20,North,0,0.4,3.4,75,0.00,,,0.00,WUHU216HW,2013-02-12 16:15:00,
2013-02-12 10:20:00,27.7,20.5,29.19,East,90,1.1,3.4,74,0.00,,,0.00,WUHU216HW,2013-02-12 16:20:00,
2013-02-12 10:25:00,27.9,21.0,29.19,NNE,23,0.4,3.4,75,0.00,,,0.00,WUHU216HW,2013-02-12 16:25:00,
2013-02-12 10:30:00,28.4,21.5,29.19,NNE,23,1.1,3.4,75,0.00,,,0.00,WUHU216HW,2013-02-12 16:30:00,
2013-02-12 10:35:00,28.6,21.1,29.19,North,0,0.4,3.4,73,0.00,,,0.00,WUHU216HW,2013-02-12 16:35:00,
2013-02-12 10:40:00,29.0,21.4,29.19,West,270,6.5,6.5,73,0.00,,,0.00,WUHU216HW,2013-02-12 16:40:00,
2013-02-12 10:45:00,29.0,21.4,29.19,SE,135,1.3,6.5,73,0.00,,,0.00,WUHU216HW,2013-02-12 16:45:00,
2013-02-12 10:50:00,28.8,20.9,29.19,WNW,293,3.4,3.4,72,0.00,,,0.00,WUHU216HW,2013-02-12 16:50:00,
2013-02-12 10:55:00,28.8,20.9,29.19,NNW,338,5.1,5.1,72,0.00,,,0.00,WUHU216HW,2013-02-12 16:55:00,
2013-02-12 11:00:00,28.8,20.9,29.19,North,0,0.7,5.1,72,0.00,,,0.00,WUHU216HW,2013-02-12 17:00:00,
2013-02-12 11:05:00,28.6,20.4,29.19,WNW,293,6.7,6.7,71,0.00,,,0.00,WUHU216HW,2013-02-12 17:05:00,
2013-02-12 11:10:00,28.4,20.3,29.19,North,0,5.4,6.7,71,0.00,,,0.00,WUHU216HW,2013-02-12 17:10:00,
2013-02-12 11:15:00,28.3,20.4,29.18,SW,225,3.6,5.4,72,0.00,,,0.00,WUHU216HW,2013-02-12 17:15:00,
2013-02-12 11:20:00,28.4,20.6,29.18,WNW,293,3.8,4.3,72,0.00,,,0.00,WUHU216HW,2013-02-12 17:20:00,
2013-02-12 11:25:00,28.6,21.1,29.18,West,270,1.1,4.3,73,0.00,,,0.00,WUHU216HW,2013-02-12 17:25:00,
2013-02-12 11:30:00,29.2,21.2,29.18,WNW,293,0.9,4.5,72,0.00,,,0.00,WUHU216HW,2013-02-12 17:30:00,
2013-02-12 11:35:00,29.2,21.6,29.18,NNW,338,1.1,4.5,73,0.00,,,0.00,WUHU216HW,2013-02-12 17:35:00,
2013-02-12 11:41:00,29.2,21.0,29.17,NW,315,2.9,3.4,71,0.00,,,0.00,WUHU216HW,2013-02-12 17:41:00,
2013-02-12 11:46:00,29.5,21.6,29.17,East,90,2.0,3.4,72,0.00,,,0.00,WUHU216HW,2013-02-12 17:46:00,
2013-02-12 11:51:00,29.5,21.2,29.17,WNW,293,3.1,4.0,71,0.00,,,0.00,WUHU216HW,2013-02-12 17:51:00,
2013-02-12 11:56:00,29.9,22.0,29.17,WSW,248,4.0,5.6,72,0.00,,,0.00,WUHU216HW,2013-02-12 17:56:00,
2013-02-12 12:01:00,30.1,21.4,29.17,WNW,293,4.7,5.6,70,0.00,,,0.00,WUHU216HW,2013-02-12 18:01:00,
2013-02-12 12:06:00,29.9,21.2,29.17,South,180,1.8,5.4,70,0.00,,,0.00,WUHU216HW,2013-02-12 18:06:00,
2013-02-12 12:11:00,29.3,20.8,29.16,NW,315,4.7,5.6,70,0.00,,,0.00,WUHU216HW,2013-02-12 18:11:00,
2013-02-12 12:16:00,29.3,20.8,29.16,SE,135,0.4,5.6,70,0.00,,,0.00,WUHU216HW,2013-02-12 18:16:00,
2013-02-12 12:21:00,29.5,21.0,29.16,WNW,293,1.1,5.8,70,0.00,,,0.00,WUHU216HW,2013-02-12 18:21:00,
2013-02-12 12:26:00,29.9,21.6,29.15,WSW,248,4.7,5.8,71,0.00,,,0.00,WUHU216HW,2013-02-12 18:26:00,
2013-02-12 12:31:00,30.1,21.8,29.15,NW,315,4.7,5.6,71,0.00,,,0.00,WUHU216HW,2013-02-12 18:31:00,
2013-02-12 12:36:00,30.2,21.6,29.15,NE,45,3.4,5.6,70,0.00,,,0.00,WUHU216HW,2013-02-12 18:36:00,
2013-02-12 12:41:00,29.9,20.9,29.15,NE,45,2.2,4.5,69,0.00,,,0.00,WUHU216HW,2013-02-12 18:41:00,
2013-02-12 12:46:00,29.9,20.9,29.14,NNW,338,2.5,4.9,69,0.00,,,0.00,WUHU216HW,2013-02-12 18:46:00,
2013-02-12 12:51:00,30.1,21.4,29.14,West,270,2.2,4.9,70,0.00,,,0.00,WUHU216HW,2013-02-12 18:51:00,
2013-02-12 12:56:00,30.4,21.8,29.14,WNW,293,3.8,3.8,70,0.00,,,0.00,WUHU216HW,2013-02-12 18:56:00,
2013-02-12 13:01:00,30.6,22.0,29.13,WNW,293,4.5,4.5,70,0.00,,,0.00,WUHU216HW,2013-02-12 19:01:00,
2013-02-12 13:06:00,31.1,22.9,29.14,West,270,2.5,5.6,71,0.00,,,0.00,WUHU216HW,2013-02-12 19:06:00,
2013-02-12 13:11:00,31.3,22.7,29.13,WNW,293,2.0,5.6,70,0.00,,,0.00,WUHU216HW,2013-02-12 19:11:00,
2013-02-12 13:16:00,31.3,22.3,29.13,NNW,338,4.5,6.7,69,0.00,,,0.00,WUHU216HW,2013-02-12 19:16:00,
2013-02-12 13:21:00,31.3,22.7,29.13,WNW,293,4.0,6.7,70,0.00,,,0.00,WUHU216HW,2013-02-12 19:21:00,
2013-02-12 13:26:00,31.3,22.3,29.13,WNW,293,6.0,6.9,69,0.00,,,0.00,WUHU216HW,2013-02-12 19:26:00,
2013-02-12 13:31:00,31.5,22.5,29.13,WNW,293,6.7,6.9,69,0.00,,,0.00,WUHU216HW,2013-02-12 19:31:00,
2013-02-12 13:36:00,31.5,22.5,29.13,NW,315,5.4,6.7,69,0.00,,,0.00,WUHU216HW,2013-02-12 19:36:00,
2013-02-12 13:41:00,31.9,22.9,29.13,WNW,293,5.4,5.4,69,0.00,,,0.00,WUHU216HW,2013-02-12 19:41:00,
2013-02-12 13:46:00,31.7,22.3,29.13,NW,315,5.1,5.4,68,0.00,,,0.00,WUHU216HW,2013-02-12 19:46:00,
2013-02-12 13:51:00,31.7,22.3,29.13,WNW,293,4.0,5.4,68,0.00,,,0.00,WUHU216HW,2013-02-12 19:51:00,
2013-02-12 13:56:00,31.5,22.1,29.12,West,270,0.4,5.1,68,0.00,,,0.00,WUHU216HW,2013-02-12 19:56:00,
2013-02-12 14:01:00,31.7,22.3,29.12,WNW,293,4.0,4.0,68,0.00,,,0.00,WUHU216HW,2013-02-12 20:01:00,
2013-02-12 14:06:00,31.7,22.3,29.12,NE,45,2.0,6.3,68,0.00,,,0.00,WUHU216HW,2013-02-12 20:06:00,
2013-02-12 14:11:00,31.5,22.1,29.12,NW,315,4.0,6.3,68,0.00,,,0.00,WUHU216HW,2013-02-12 20:11:00,
2013-02-12 14:16:00,31.3,22.0,29.12,WNW,293,2.2,4.9,68,0.00,,,0.00,WUHU216HW,2013-02-12 20:16:00,
2013-02-12 14:21:00,31.5,22.5,29.12,WNW,293,1.3,4.7,69,0.00,,,0.00,WUHU216HW,2013-02-12 20:21:00,
2013-02-12 14:26:00,31.7,22.3,29.12,NNW,338,1.8,4.7,68,0.00,,,0.00,WUHU216HW,2013-02-12 20:26:00,
2013-02-12 14:31:00,31.7,22.7,29.12,NNW,338,2.5,5.1,69,0.00,,,0.00,WUHU216HW,2013-02-12 20:31:00,
2013-02-12 14:36:00,31.7,22.3,29.12,WNW,293,2.7,5.4,68,0.00,,,0.00,WUHU216HW,2013-02-12 20:36:00,
2013-02-12 14:41:00,31.7,22.3,29.12,WNW,293,5.1,5.4,68,0.00,,,0.00,WUHU216HW,2013-02-12 20:41:00,
2013-02-12 14:46:00,31.9,22.5,29.12,WNW,293,3.1,5.4,68,0.00,,,0.00,WUHU216HW,2013-02-12 20:46:00,
2013-02-12 14:51:00,31.9,22.5,29.12,NW,315,2.7,3.6,68,0.00,,,0.00,WUHU216HW,2013-02-12 20:51:00,
2013-02-12 14:56:00,31.9,22.5,29.12,WNW,293,2.2,3.6,68,0.00,,,0.00,WUHU216HW,2013-02-12 20:56:00,
2013-02-12 15:01:00,32.0,23.4,29.12,WNW,293,1.3,4.3,70,0.00,,,0.00,WUHU216HW,2013-02-12 21:01:00,
2013-02-12 15:06:00,32.0,23.4,29.12,WSW,248,4.3,4.3,70,0.00,,,0.00,WUHU216HW,2013-02-12 21:06:00,
2013-02-12 15:11:00,32.0,23.4,29.12,WNW,293,3.6,4.3,70,0.00,,,0.00,WUHU216HW,2013-02-12 21:11:00,
2013-02-12 15:16:00,32.0,23.4,29.13,WNW,293,1.1,4.3,70,0.00,,,0.00,WUHU216HW,2013-02-12 21:16:00,
2013-02-12 15:21:00,32.4,23.8,29.12,NNW,338,1.1,4.3,70,0.00,,,0.00,WUHU216HW,2013-02-12 21:21:00,
2013-02-12 15:26:00,32.6,23.5,29.13,WNW,293,6.0,6.9,69,0.00,,,0.00,WUHU216HW,2013-02-12 21:26:00,
2013-02-12 15:31:00,32.4,23.4,29.13,WNW,293,4.7,6.9,69,0.00,,,0.00,WUHU216HW,2013-02-12 21:31:00,
2013-02-12 15:36:00,32.6,23.5,29.13,West,270,4.9,6.0,69,0.00,,,0.00,WUHU216HW,2013-02-12 21:36:00,
2013-02-12 15:41:00,32.6,23.9,29.13,WSW,248,6.3,8.1,70,0.00,,,0.00,WUHU216HW,2013-02-12 21:41:00,
2013-02-12 15:46:00,32.6,23.9,29.13,West,270,4.3,8.1,70,0.00,,,0.00,WUHU216HW,2013-02-12 21:46:00,
2013-02-12 15:51:00,32.6,23.9,29.13,West,270,3.1,5.6,70,0.00,,,0.00,WUHU216HW,2013-02-12 21:51:00,
2013-02-12 15:56:00,32.4,23.8,29.12,WSW,248,3.4,4.5,70,0.00,,,0.00,WUHU216HW,2013-02-12 21:56:00,
2013-02-12 16:01:00,32.4,23.4,29.12,West,270,6.5,6.5,69,0.00,,,0.00,WUHU216HW,2013-02-12 22:01:00,
2013-02-12 16:06:00,32.4,23.8,29.13,WSW,248,1.8,6.5,70,0.00,,,0.00,WUHU216HW,2013-02-12 22:06:00,
2013-02-12 16:11:00,32.2,23.6,29.13,WNW,293,4.5,4.5,70,0.00,,,0.00,WUHU216HW,2013-02-12 22:11:00,
2013-02-12 16:16:00,32.2,23.2,29.12,West,270,2.7,4.7,69,0.00,,,0.00,WUHU216HW,2013-02-12 22:16:00,
2013-02-12 16:21:00,32.0,23.0,29.12,NW,315,1.6,4.7,69,0.00,,,0.00,WUHU216HW,2013-02-12 22:21:00,
2013-02-12 16:26:00,31.7,22.7,29.13,WSW,248,3.4,5.6,69,0.00,,,0.00,WUHU216HW,2013-02-12 22:26:00,
2013-02-12 16:31:00,31.7,23.0,29.12,West,270,2.7,5.6,70,0.00,,,0.00,WUHU216HW,2013-02-12 22:31:00,
2013-02-12 16:36:00,31.5,22.9,29.13,WNW,293,3.4,6.5,70,0.00,,,0.00,WUHU216HW,2013-02-12 22:36:00,
2013-02-12 16:41:00,31.3,22.7,29.13,West,270,6.9,6.9,70,0.00,,,0.00,WUHU216HW,2013-02-12 22:41:00,
2013-02-12 16:46:00,31.1,22.5,29.13,West,270,3.4,6.9,70,0.00,,,0.00,WUHU216HW,2013-02-12 22:46:00,
2013-02-12 16:51:00,31.0,22.3,29.12,WNW,293,2.7,5.4,70,0.00,,,0.00,WUHU216HW,2013-02-12 22:51:00,
2013-02-12 16:56:00,30.6,22.0,29.12,WSW,248,2.2,4.9,70,0.00,,,0.00,WUHU216HW,2013-02-12 22:56:00,
2013-02-12 17:01:00,30.6,22.0,29.12,NW,315,2.9,3.1,70,0.00,,,0.00,WUHU216HW,2013-02-12 23:01:00,
2013-02-12 17:06:00,30.2,22.0,29.12,WNW,293,1.8,3.8,71,0.00,,,0.00,WUHU216HW,2013-02-12 23:06:00,
2013-02-12 17:11:00,29.9,21.6,29.12,WNW,293,1.8,3.8,71,0.00,,,0.00,WUHU216HW,2013-02-12 23:11:00,
2013-02-12 17:16:00,29.7,21.8,29.12,WNW,293,2.2,3.6,72,0.00,,,0.00,WUHU216HW,2013-02-12 23:16:00,
2013-02-12 17:21:00,29.5,21.6,29.12,WNW,293,3.6,3.6,72,0.00,,,0.00,WUHU216HW,2013-02-12 23:21:00,
2013-02-12 17:26:00,29.2,21.2,29.12,WNW,293,0.9,3.6,72,0.00,,,0.00,WUHU216HW,2013-02-12 23:26:00,
2013-02-12 17:31:00,29.2,21.2,29.12,West,270,0.7,2.9,72,0.00,,,0.00,WUHU216HW,2013-02-12 23:31:00,
2013-02-12 17:36:00,29.0,21.4,29.12,West,270,1.8,2.0,73,0.00,,,0.00,WUHU216HW,2013-02-12 23:36:00,
2013-02-12 17:41:00,28.6,21.1,29.12,WNW,293,1.1,1.8,73,0.00,,,0.00,WUHU216HW,2013-02-12 23:41:00,
2013-02-12 17:46:00,28.4,20.9,29.12,WSW,248,1.1,2.5,73,0.00,,,0.00,WUHU216HW,2013-02-12 23:46:00,
2013-02-12 17:51:00,28.1,20.5,29.12,West,270,0.4,2.5,73,0.00,,,0.00,WUHU216HW,2013-02-12 23:51:00,
2013-02-12 17:56:00,27.7,20.5,29.12,West,270,0.4,1.6,74,0.00,,,0.00,WUHU216HW,2013-02-12 23:56:00,
2013-02-12 18:01:00,27.5,20.4,29.12,WNW,293,0.9,1.1,74,0.00,,,0.00,WUHU216HW,2013-02-13 00:01:00,
2013-02-12 18:06:00,27.2,20.0,29.12,West,270,0.4,0.9,74,0.00,,,0.00,WUHU216HW,2013-02-13 00:06:00,
2013-02-12 18:11:00,27.0,19.8,29.12,West,270,1.3,2.0,74,0.00,,,0.00,WUHU216HW,2013-02-13 00:11:00,
2013-02-12 18:16:00,26.8,19.9,29.12,West,270,1.8,2.0,75,0.00,,,0.00,WUHU216HW,2013-02-13 00:16:00,
2013-02-12 18:21:00,26.6,19.7,29.12,NNW,338,1.3,1.8,75,0.00,,,0.00,WUHU216HW,2013-02-13 00:21:00,
2013-02-12 18:26:00,26.5,19.5,29.12,NW,315,0.9,1.8,75,0.00,,,0.00,WUHU216HW,2013-02-13 00:26:00,
2013-02-12 18:31:00,26.3,19.4,29.12,West,270,1.1,2.9,75,0.00,,,0.00,WUHU216HW,2013-02-13 00:31:00,
2013-02-12 18:36:00,26.3,19.4,29.12,WNW,293,1.6,2.9,75,0.00,,,0.00,WUHU216HW,2013-02-13 00:36:00,
2013-02-12 18:41:00,26.3,19.7,29.12,West,270,0.9,2.0,76,0.00,,,0.00,WUHU216HW,2013-02-13 00:41:00,
2013-02-12 18:46:00,25.9,19.4,29.12,NW,315,0.4,2.0,76,0.00,,,0.00,WUHU216HW,2013-02-13 00:46:00,
2013-02-12 18:51:00,25.7,19.2,29.12,WNW,293,0.4,0.9,76,0.00,,,0.00,WUHU216HW,2013-02-13 00:51:00,
2013-02-12 18:56:00,25.6,19.0,29.12,WNW,293,1.1,1.1,76,0.00,,,0.00,WUHU216HW,2013-02-13 00:56:00,
2013-02-12 19:01:00,25.6,19.4,29.11,NNW,338,1.1,1.1,77,0.00,,,0.00,WUHU216HW,2013-02-13 01:01:00,
2013-02-12 19:06:00,25.4,19.2,29.11,WNW,293,0.7,1.1,77,0.00,,,0.00,WUHU216HW,2013-02-13 01:06:00,
2013-02-12 19:11:00,25.2,19.0,29.11,WNW,293,0.7,1.3,77,0.00,,,0.00,WUHU216HW,2013-02-13 01:11:00,
2013-02-12 19:16:00,25.2,19.0,29.11,West,270,1.8,2.2,77,0.00,,,0.00,WUHU216HW,2013-02-13 01:16:00,
2013-02-12 19:21:00,25.0,18.8,29.11,WNW,293,1.8,2.7,77,0.00,,,0.00,WUHU216HW,2013-02-13 01:21:00,
2013-02-12 19:26:00,25.0,18.8,29.11,North,0,1.1,2.7,77,0.00,,,0.00,WUHU216HW,2013-02-13 01:26:00,
2013-02-12 19:31:00,24.8,19.0,29.11,NW,315,1.3,4.0,78,0.00,,,0.00,WUHU216HW,2013-02-13 01:31:00,
2013-02-12 19:36:00,24.8,19.3,29.11,WNW,293,1.3,4.0,79,0.00,,,0.00,WUHU216HW,2013-02-13 01:36:00,
2013-02-12 19:41:00,24.8,19.0,29.11,WNW,293,3.1,3.1,78,0.00,,,0.00,WUHU216HW,2013-02-13 01:41:00,
2013-02-12 19:46:00,25.0,19.2,29.11,West,270,0.9,3.1,78,0.00,,,0.00,WUHU216HW,2013-02-13 01:46:00,
2013-02-12 19:51:00,25.0,19.2,29.12,WSW,248,3.4,3.6,78,0.00,,,0.00,WUHU216HW,2013-02-13 01:51:00,
2013-02-12 19:56:00,25.2,19.3,29.12,West,270,3.1,3.8,78,0.00,,,0.00,WUHU216HW,2013-02-13 01:56:00,
2013-02-12 20:01:00,25.2,19.3,29.12,WNW,293,1.8,4.3,78,0.00,,,0.00,WUHU216HW,2013-02-13 02:01:00,
2013-02-12 20:06:00,25.2,19.3,29.12,West,270,1.8,4.3,78,0.00,,,0.00,WUHU216HW,2013-02-13 02:06:00,
2013-02-12 20:11:00,25.2,19.3,29.12,WNW,293,3.1,5.4,78,0.00,,,0.00,WUHU216HW,2013-02-13 02:11:00,
2013-02-12 20:16:00,25.0,19.2,29.12,NW,315,3.4,5.4,78,0.00,,,0.00,WUHU216HW,2013-02-13 02:16:00,
2013-02-12 20:21:00,25.0,19.2,29.11,WNW,293,2.9,3.6,78,0.00,,,0.00,WUHU216HW,2013-02-13 02:21:00,
2013-02-12 20:26:00,24.8,19.0,29.11,WNW,293,2.0,3.8,78,0.00,,,0.00,WUHU216HW,2013-02-13 02:26:00,
2013-02-12 20:31:00,24.7,18.8,29.12,West,270,3.1,3.8,78,0.00,,,0.00,WUHU216HW,2013-02-13 02:31:00,
2013-02-12 20:36:00,24.7,18.8,29.12,West,270,1.3,4.0,78,0.00,,,0.00,WUHU216HW,2013-02-13 02:36:00,
2013-02-12 20:41:00,24.5,18.6,29.12,West,270,2.7,4.0,78,0.00,,,0.00,WUHU216HW,2013-02-13 02:41:00,
2013-02-12 20:46:00,24.5,18.6,29.12,West,270,1.3,3.8,78,0.00,,,0.00,WUHU216HW,2013-02-13 02:46:00,
2013-02-12 20:51:00,24.3,18.5,29.12,NW,315,1.1,2.5,78,0.00,,,0.00,WUHU216HW,2013-02-13 02:51:00,
2013-02-12 20:56:00,24.1,18.5,29.12,WNW,293,1.3,2.7,79,0.00,,,0.00,WUHU216HW,2013-02-13 02:56:00,
2013-02-12 21:01:00,24.1,18.5,29.12,WNW,293,2.5,2.7,79,0.00,,,0.00,WUHU216HW,2013-02-13 03:01:00,
2013-02-12 21:06:00,24.1,18.5,29.12,NW,315,0.9,2.5,79,0.00,,,0.00,WUHU216HW,2013-02-13 03:06:00,
2013-02-12 21:11:00,23.9,18.4,29.11,WNW,293,1.8,2.2,79,0.00,,,0.00,WUHU216HW,2013-02-13 03:11:00,
2013-02-12 21:16:00,23.8,17.9,29.11,NW,315,0.9,1.8,78,0.00,,,0.00,WUHU216HW,2013-02-13 03:16:00,
2013-02-12 21:21:00,23.6,17.7,29.11,WNW,293,2.2,3.4,78,0.00,,,0.00,WUHU216HW,2013-02-13 03:21:00,
2013-02-12 21:26:00,23.6,17.7,29.11,West,270,3.6,3.6,78,0.00,,,0.00,WUHU216HW,2013-02-13 03:26:00,
2013-02-12 21:31:00,23.6,17.7,29.11,WSW,248,2.7,3.6,78,0.00,,,0.00,WUHU216HW,2013-02-13 03:31:00,
2013-02-12 21:36:00,23.6,17.7,29.11,West,270,1.1,3.4,78,0.00,,,0.00,WUHU216HW,2013-02-13 03:36:00,
2013-02-12 21:41:00,23.4,17.6,29.11,West,270,2.5,2.7,78,0.00,,,0.00,WUHU216HW,2013-02-13 03:41:00,
2013-02-12 21:46:00,23.4,17.6,29.10,West,270,1.8,3.4,78,0.00,,,0.00,WUHU216HW,2013-02-13 03:46:00,
2013-02-12 21:51:00,23.4,17.6,29.10,WSW,248,1.6,3.4,78,0.00,,,0.00,WUHU216HW,2013-02-13 03:51:00,
2013-02-12 21:56:00,23.2,17.4,29.10,West,270,2.2,3.1,78,0.00,,,0.00,WUHU216HW,2013-02-13 03:56:00,
2013-02-12 22:01:00,23.2,17.4,29.10,WNW,293,3.1,3.1,78,0.00,,,0.00,WUHU216HW,2013-02-13 04:01:00,
2013-02-12 22:06:00,23.2,17.4,29.10,WSW,248,2.2,3.1,78,0.00,,,0.00,WUHU216HW,2013-02-13 04:06:00,
2013-02-12 22:11:00,23.0,17.2,29.10,West,270,2.2,3.4,78,0.00,,,0.00,WUHU216HW,2013-02-13 04:11:00,
2013-02-12 22:16:00,23.0,17.2,29.10,WNW,293,2.0,3.4,78,0.00,,,0.00,WUHU216HW,2013-02-13 04:16:00,
2013-02-12 22:21:00,23.0,17.6,29.09,WNW,293,2.9,4.0,79,0.00,,,0.00,WUHU216HW,2013-02-13 04:21:00,
2013-02-12 22:26:00,23.0,17.6,29.10,WNW,293,1.1,4.0,79,0.00,,,0.00,WUHU216HW,2013-02-13 04:26:00,
2013-02-12 22:31:00,23.0,17.6,29.10,West,270,1.8,3.1,79,0.00,,,0.00,WUHU216HW,2013-02-13 04:31:00,
2013-02-12 22:36:00,23.0,17.6,29.09,WSW,248,2.2,4.3,79,0.00,,,0.00,WUHU216HW,2013-02-13 04:36:00,
2013-02-12 22:41:00,23.2,17.7,29.09,West,270,3.4,4.3,79,0.00,,,0.00,WUHU216HW,2013-02-13 04:41:00,
2013-02-12 22:46:00,23.2,17.7,29.09,WSW,248,2.5,3.8,79,0.00,,,0.00,WUHU216HW,2013-02-13 04:46:00,
2013-02-12 22:51:00,23.4,17.9,29.09,West,270,2.0,4.0,79,0.00,,,0.00,WUHU216HW,2013-02-13 04:51:00,
2013-02-12 22:56:00,23.4,17.9,29.09,West,270,2.7,4.7,79,0.00,,,0.00,WUHU216HW,2013-02-13 04:56:00,
2013-02-12 23:00:00,23.4,17.9,29.09,West,270,1.1,4.7,79,0.00,,,0.00,WUHU216HW,2013-02-13 05:00:00,
2013-02-12 23:05:00,23.4,17.9,29.09,WSW,248,2.0,4.7,79,0.00,,,0.00,WUHU216HW,2013-02-13 05:05:00,
2013-02-12 23:10:00,23.6,18.1,29.08,WSW,248,1.8,4.5,79,0.00,,,0.00,WUHU216HW,2013-02-13 05:10:00,
2013-02-12 23:15:00,23.6,18.1,29.09,West,270,5.1,5.1,79,0.00,,,0.00,WUHU216HW,2013-02-13 05:15:00,
2013-02-12 23:20:00,23.6,18.1,29.08,WNW,293,5.4,5.4,79,0.00,,,0.00,WUHU216HW,2013-02-13 05:20:00,
2013-02-12 23:25:00,23.6,18.1,29.08,WNW,293,3.1,5.4,79,0.00,,,0.00,WUHU216HW,2013-02-13 05:25:00,
2013-02-12 23:30:00,23.6,18.1,29.08,WNW,293,3.4,4.5,79,0.00,,,0.00,WUHU216HW,2013-02-13 05:30:00,
2013-02-12 23:35:00,23.6,18.1,29.08,West,270,3.1,4.7,79,0.00,,,0.00,WUHU216HW,2013-02-13 05:35:00,
2013-02-12 23:40:00,23.6,18.1,29.08,WNW,293,1.6,4.7,79,0.00,,,0.00,WUHU216HW,2013-02-13 05:40:00,
2013-02-12 23:45:00,23.6,18.1,29.08,West,270,1.8,3.8,79,0.00,,,0.00,WUHU216HW,2013-02-13 05:45:00,
2013-02-12 23:50:00,23.6,18.1,29.08,West,270,1.8,3.6,79,0.00,,,0.00,WUHU216HW,2013-02-13 05:50:00,
2013-02-12 23:55:00,23.6,18.1,29.08,West,270,2.9,2.9,79,0.00,,,0.00,WUHU216HW,2013-02-13 05:55:00,